Starlink 31000

operational
NORAD ID: 58488 Int'l Des: 2023-186 Owner: SPXS Country: US Constellation: starlink
LEOCIRCULAR

About Starlink 31000

Description loading...

Live Position

Loading 3D Globe...

Upcoming Passes

Altitude History

Altitude vs Time

uPlot chart will show altitude changes over time

Two-Line Element Set

1 58488U 23186R 25258.79516927 .00000474 00000-0 50180-4 0 9994
2 58488 43.0034 297.7068 0001540 272.1701 87.8965 15.02534326 99538
Epoch: Sep 15, 2025 • Age: 20 hours

Current Status

Altitude 571.3 km
Velocity 7.58 km/s
Sub-Earth Point -42.99°S, 18.13°W
Launch Date Dec 3, 2023
Age 1.7 years
Type internet

Technical Details

Classification Payload
Mass 730.00 kg
Dry Mass 700.00 kg
Total Mass 730.00 kg
Length 0.30 m
Diameter 4.10 m
Span 29.00 m
Shape Box + pan
Manufacturer SPXS
Bus Type Starlink V2M
Phase Status In Orbit
Owner/State SPXS/US

Large Constellations

Loading constellations...